Погода Поярково

Погода Поярково : погода сейчас, прогноз погоды и архив. Всё, что Вы хотите узнать о погоде Поярково!

Поиск расширенной информации на нашем сайте:

Другие новости

Новости СМИ2

Главная страница сайта

Новости сайта

03.07.2017

Напоминаем, что на нашем специализированном сайте Метеоцентр.Азия вы можете получить высокодетализированные автоматические прогнозы погоды по пунктам России, СНГ и мира в авиационном формате (включающие направление и скорость ветра, видимость, явления погоды, количество и форму облачности, нижнюю и верхнюю границу облачности).

Рекомендуем: новая баня екатеринбург

Погода Поярково - сегодня

Время (UTC), дата Ветер
(°,м/с) 
Видим.   Явления Облачность Т
(°С)
Тd
(°С)
f(%) Тe
(°С)
Pmin
(гПа)
dP
(гПа)
Po
(мм)
O2
(г/м3)
Тmin Tmax R s Состояние
почвы
21 20.10.17 290 (З) н/о    3/3 600 м кучево-дожд. 
[Cb calv]
-8.1 -11.2 78 -11  1019.4  1.4  753  314           
00 21.10.17 300 (СЗ) 20000 м    ясно 
-6.2 -11.9 64 -10  1021.7  2.4  755  312  -8.6    <0.5  равномерный
мокрый или
старый снег
100% 
03 21.10.17 290 (З) 4{10}  20000 м    1/1 1000 м 
[Cu hum]
-3.3 -11.7 52 -6  1022.2  0.6  756  309           
06 21.10.17 280 (З) 4{11}  20000 м    3/3 1000 м 
[Cu hum]
-1.1 -11.8 44 -4  1022  0.1  756  307           
09 21.10.17 270 (З) 20000 м    ясно 
-2.8 -11.5 51 -5  1023.5  1.4  757  309           
12 21.10.17 270 (З) н/о    ясно 
-3.2 -12.4 49 -4  1023.8  0.2  757  310    -0.8       
15 21.10.17 290 (З) н/о    ясно 
-8.2 -12.7 70 -10  1025.2  1.1  758  316           
18 21.10.17 290 (З) н/о    ясно 
-9.7 -13.7 73 -11  1026.4  1.1  758  318           
21 21.10.17 300 (СЗ) н/о    ясно 
-10.3 -15.4 66 -13  1027.5  759  319           
00 22.10.17 300 (СЗ) 20000 м    ясно 
-7.3 -14.2 58 -10  1028.9  1.6  760  316  -10.3         
03 22.10.17 300 (СЗ) 20000 м    ясно 
-1.4 -15.6 33 -4  1028.6  760  309           
06 22.10.17 270 (З) 20000 м    ясно 
+0.3 -14.3 32 1027.2  -1.3  759  307           
09 22.10.17 тихо ()   10 км    ясно 
-3.5 -12.5 50 -4  1027.3  0.1  759  311           
12 22.10.17 тихо ()   н/о    ясно 
-9 -11.9 79 -9  1028.1  0.5  760  318    +0.4       
15 22.10.17 060 (СВ) н/о    ясно 
-11 -13 85 -11  1027.4  -0.8  759  320           
18 22.10.17 300 (СЗ) н/о    ясно 
-7.6 -11.7 72 -9  1026  -1.2  758  315           
21 22.10.17 тихо ()   н/о    ясно 
-10.4 -12.9 82 -10  1025.7  -0.4  758  319           
00 23.10.17 тихо ()   20000 м    ясно 
-4.4 -9 70 -4  1024.5  -0.8  757  311  -11.7      <0.5  мокрый или
старый снег
50-90% 
03 23.10.17 260 (З) 20000 м    ясно 
+3.4 -11.8 32 +3  1021.9  -2.1  756  302           
06 23.10.17 270 (З) 20000 м    ясно 
+6.5 -10.3 29 +6  1019.9  -1.9  754  298           
09 23.10.17 тихо ()   20000 м    ясно 
+0.7 -9.9 45 +1  1019.7  -0.5  754  304           
12 23.10.17 тихо ()   н/о    ясно 
-4.4 -8.6 72 -4  1019.8  0.1  754  310    +6.6       
15 23.10.17 тихо ()   н/о    ясно 
-5.5 -7.9 83 -6  1019.4  -0.5  753  311           
18 23.10.17 080 (В) н/о    ясно 
-7.1 -8.9 87 -7  1018.5  -0.9  753  312           
21 23.10.17 170 (Ю) н/о    ясно 
-4 -6.6 82 -5  1017.1  -1.3  752  308           
Время (UTC), дата Ветер
(°,м/с) 
Видим.   Явления Облачность Т
(°С)
Тd
(°С)
f(%) Тe
(°С)
Pmin
(гПа)
dP
(гПа)
Po
(мм)
O2
(г/м3)
Тmin Tmax R s Состояние
почвы

Для получения пояснительной информации подведите курсор к названию столбца.

ПОГОДА Поярково - архив

Всё, что Вы хотите узнать о погоде Поярково - удобно и подробно!

Выберите нужную дату (начиная с 1 января 2015* года) и нажмите кнопку "Найти".
Будут отображены архивные сводки погоды по пункту Поярково, начиная с указанной даты.


Отображать данные в формате CSV (для использования в таблицах Excel)


Внимание! Наш архив погоды предназначен исключительно для личного некоммерческого использования в познавательных целях. Если Вам необходимы официальные справки о состоянии погоды (для производственных, юридических, коммерческих и т.п. целей), обращайтесь в органы Росгидромета.

*Примечание: данная дата относится к архиву по метеостанциям СССР (Россия, СНГ, Балтия).
Архив по метеостанциям Зарубежной Европы и Азии (кроме Китая) хранится 10 дней, по другим регионам земного шара (Китай, Африка, Америка, Австралия, Океания) - 1 день.

Поярково - район местоположения метеостанции


Название, широта, долгота, высота метеостанции:
Поярково 49.6°ш. 128.6°д. 115 м над ур. моря [Российская Федерация]

Дополнительная информация

В oтличие oт бoльшинства пoгoдных сайтoв мы публикуем пoдрoбную метеoинфoрмацию в детальнoм прoфессиoнальнoм фoрмате.

Характеристики температуры и влажнoсти вoздуха измеряются на высoте 2 м в тени вдали oт зданий и деревьев.
Скoрoсть ветра измеряется на высoте 10 м (на урoвне рoста челoвека скoрoсть ветра ниже в 1.5-2 раза). Если метеoстанция нахoдится в гoрoде или в лесу, тo скoрoсть ветра занижена на 2-4 м/с пo сравнению с oткрытым местoм. Скoрoсть ветра над акватoриями крупных рек и oзёр, а также на вершинах хoлмoв на 2-5 м/с выше, чем в oбычных услoвиях.
Атмoсфернoе давление в разных тoчках местнoсти мoжет значительнo oтличаться oт давления на метеoстанции, в зависимoсти oт услoвий рельефа (при пoдъёме на 10 м давление пoнижается примернo на 1 мм рт.ст.).